This demonstration page uses our WeatherBlox Daily Observations layout. Learn more.

Left ArrowRight Arrow

Hourly Observations for November 22, 2022

Temp ( °F °C ) Dew Point ( °F °C ) Humidity (%) Winds ( mph kmh ) Pressure ( in mb ) Visibility ( mi km ) Precip ( " mm )
12:56 am 00:56 Clear 28 -2.2 14 -10 55 55 SW 5 7 30.22 1023 10 16 0.00 0.00
1:56 am 01:56 Clear 28 -2.2 13 -10.6 52 52 SW 7 11 30.20 1023 10 16 0.00 0.00
2:56 am 02:56 Clear 21 -6.1 11 -11.7 64 64 WSW 3 6 30.21 1023 10 16 0.00 0.00
3:56 am 03:56 Clear 20 -6.7 11 -11.7 67 67 Calm 30.19 1022 10 16 0.00 0.00
4:56 am 04:56 Clear 25 -3.9 13 -10.6 60 60 SW 12 19 30.17 1022 10 16 0.00 0.00
5:56 am 05:56 Clear 30 -1.1 13 -10.6 48 48 SW 7 11 30.18 1022 10 16 0.00 0.00
6:56 am 06:56 Clear 28 -2.2 13 -10.6 52 52 WSW 8 13 30.18 1022 10 16 0.00 0.00
7:56 am 07:56 Sunny 28 -2.2 13 -10.6 52 52 W 7 11 30.20 1023 10 16 0.00 0.00
8:56 am 08:56 Sunny 33 0.6 15 -9.4 47 47 Calm 30.19 1022 10 16 0.00 0.00
9:56 am 09:56 Sunny 40 4.4 14 -10 34 34 VRB 3 6 30.19 1022 10 16 0.00 0.00
10:56 am 10:56 Sunny 47 8.3 15 -9.4 27 27 Calm 30.17 1022 10 16 0.00 0.00
11:56 am 11:56 Sunny 51 10.6 14 -10 22 22 NW 6 9 30.15 1021 10 16 0.00 0.00
12:56 pm 12:56 Sunny 56 13.3 15 -9.4 20 20 W 5 7 30.12 1020 10 16 0.00 0.00
1:56 pm 13:56 Sunny 59 15 13 -10.6 16 16 W 3 6 30.10 1019 10 16 0.00 0.00
2:56 pm 14:56 Sunny 59 15 13 -10.6 16 16 N 5 7 30.11 1020 10 16 0.00 0.00
3:56 pm 15:56 Sunny 58 14.4 13 -10.6 17 17 NNE 6 9 30.11 1020 10 16 0.00 0.00
4:56 pm 16:56 Sunny 49 9.4 13 -10.6 23 23 NNE 7 11 30.11 1020 10 16 0.00 0.00
5:56 pm 17:56 Clear 46 7.8 14 -10 27 27 NNE 3 6 30.11 1020 9 14 0.00 0.00
6:56 pm 18:56 Clear 41 5 13 -10.6 31 31 Calm 30.12 1020 10 16 0.00 0.00
7:56 pm 19:56 Clear 34 1.1 10 -12.2 36 36 NNW 7 11 30.14 1021 10 16 0.00 0.00
8:56 pm 20:56 Clear 33 0.6 11 -11.7 39 39 Calm 30.13 1020 10 16 0.00 0.00
9:56 pm 21:56 Clear 29 -1.7 12 -11.1 49 49 NW 6 9 30.11 1020 10 16 0.00 0.00
10:56 pm 22:56 Clear 28 -2.2 13 -10.6 52 52 NNW 5 7 30.09 1019 10 16 0.00 0.00
11:56 pm 23:56 Clear 26 -3.3 12 -11.1 55 55 Calm 30.08 1019 10 16 0.00 0.00

Powered by AerisWeather